Weather reports worldwide

Advertisment
Yeovilton, United Kingdom (3853): temperature & dewpoint: 15.02.2019 20:00:00 - 21.02.2019 20:00:00 (GMT)Yeovilton, United Kingdom (3853): temperature -20cm & temperature -100cm: 15.02.2019 20:00:00 - 21.02.2019 20:00:00 (GMT)Yeovilton, United Kingdom (3853): wind speed & gusts: 15.02.2019 20:00:00 - 21.02.2019 20:00:00 (GMT)Yeovilton, United Kingdom (3853): wind direction: 15.02.2019 20:00:00 - 21.02.2019 20:00:00 (GMT)Yeovilton, United Kingdom (3853): reduced air pressure: 15.02.2019 20:00:00 - 21.02.2019 20:00:00 (GMT)Yeovilton, United Kingdom (3853): visibility: 15.02.2019 20:00:00 - 21.02.2019 20:00:00 (GMT)Yeovilton, United Kingdom (3853): sunshine duration: 15.02.2019 20:00:00 - 21.02.2019 20:00:00 (GMT)Yeovilton, United Kingdom (3853): precipitation: 15.02.2019 20:00:00 - 21.02.2019 20:00:00 (GMT)
Date & Time tt [°C] td [°C] tt -20cm [°C] tt -100cm [°C] ff [km/h] ff [kn] fx [km/h] fx [kn] dd ppp [hPa] vv [km] sd [min] rr [mm]
21.02.2019 20:00:00 8,0 7,0 - - 9 5 - - SSE 1029,9 6 0 0,0
21.02.2019 19:00:00 8,8 7,5 - - 16 9 - - S 1029,2 8 0 0,0
21.02.2019 18:00:00 8,9 7,0 - - 13 7 - - S 1028,6 10 18 0,0
21.02.2019 17:00:00 10,9 8,0 - - 11 6 - - S 1027,9 10 60 0,0
21.02.2019 16:00:00 12,0 8,4 - - 15 8 - - S 1027,4 10 60 0,0
21.02.2019 15:00:00 12,6 8,8 - - 16 9 - - S 1027,2 15 6 0,0
21.02.2019 14:00:00 11,7 8,3 - - 18 10 - - SSW 1027,0 15 0 0,0
21.02.2019 13:00:00 11,5 8,8 - - 15 8 - - SSW 1026,8 10 0 0,0
21.02.2019 12:00:00 11,4 9,1 - - 15 8 - - SSW 1026,7 10 0 0,0
21.02.2019 11:00:00 11,2 8,6 - - 21 11 - - SSW 1026,7 15 0 0,0
21.02.2019 10:00:00 11,0 8,7 - - 16 9 - - SSW 1026,0 10 0 0,0
21.02.2019 09:00:00 10,7 9,0 8,7 7,4 11 6 - - S 1025,5 15 0 0,0
21.02.2019 08:00:00 10,2 8,9 - - 11 6 - - SSW 1024,8 10 0 0,0
21.02.2019 07:00:00 10,1 8,8 - - 15 8 - - SSW 1024,1 8 0 0,0
21.02.2019 06:00:00 10,2 8,8 - - 9 5 - - S 1023,8 10 0 0,0
21.02.2019 05:00:00 10,2 8,8 - - 9 5 - - S 1023,4 10 0 0,0
21.02.2019 04:00:00 10,2 8,7 - - 15 8 - - SSW 1023,0 10 0 0,0
21.02.2019 03:00:00 10,3 8,5 - - 21 11 - - SSW 1022,3 10 0 0,0
21.02.2019 02:00:00 10,4 8,4 - - 18 10 - - S 1022,3 10 0 0,0
21.02.2019 01:00:00 10,2 8,0 - - 15 8 - - S 1022,4 10 0 0,0
21.02.2019 00:00:00 10,2 7,4 - - 16 9 - - S 1022,2 10 - 0,0
20.02.2019 23:00:00 9,8 7,0 - - 5 3 - - SSW 1021,8 10 0 0,0
20.02.2019 22:00:00 9,3 6,9 - - 13 7 - - S 1021,4 10 0 0,0
20.02.2019 21:00:00 9,1 7,4 - - 18 10 - - S 1021,1 15 0 0,0
20.02.2019 20:00:00 9,2 7,2 - - 15 8 - - SSE 1020,9 15 0 0,0
20.02.2019 19:00:00 10,1 7,6 - - 21 11 - - S 1021,0 15 0 0,0
20.02.2019 18:00:00 10,0 7,6 - - 16 9 - - SSW 1020,2 18 0 0,0
20.02.2019 17:00:00 10,2 7,7 - - 18 10 - - S 1019,9 18 0 0,0
20.02.2019 16:00:00 10,3 7,8 - - 22 12 - - SSW 1019,8 18 0 0,0
20.02.2019 15:00:00 10,5 7,8 - - 24 13 - - SSW 1020,0 18 0 -
20.02.2019 14:00:00 10,6 8,0 - - 22 12 - - SSW 1019,8 20 0 -
20.02.2019 13:00:00 10,8 7,9 - - 26 14 - - SSW 1019,7 10 0 0,0
20.02.2019 12:00:00 10,6 7,6 - - 31 17 46 25 SSW 1019,8 20 30 0,0
20.02.2019 11:00:00 11,2 8,2 - - 29 16 - - SSW 1019,2 10 30 0,0
20.02.2019 10:00:00 10,0 7,7 - - 21 11 - - SSW 1019,0 10 12 0,0
20.02.2019 09:00:00 9,7 7,5 8,2 7,2 22 12 - - SSW 1018,4 20 0 0,0
20.02.2019 08:00:00 9,2 7,1 - - 22 12 - - SSW 1018,0 10 0 0,0
20.02.2019 07:00:00 9,3 7,2 - - 21 11 - - SSW 1017,4 10 0 0,0
20.02.2019 06:00:00 9,0 7,1 - - 21 11 - - SSW 1017,5 10 0 0,0
20.02.2019 05:00:00 9,3 7,3 - - 22 12 - - SSW 1017,4 10 0 0,0
20.02.2019 04:00:00 9,2 7,4 - - 18 10 - - SSW 1017,3 10 0 0,0
20.02.2019 03:00:00 9,2 6,8 - - 24 13 - - SSW 1017,6 15 0 0,0
20.02.2019 02:00:00 9,3 6,7 - - 22 12 - - SSW 1018,0 10 0 0,0
20.02.2019 01:00:00 9,3 6,5 - - 18 10 - - SSW 1018,2 10 0 0,0
20.02.2019 00:00:00 9,3 6,3 - - 22 12 - - SSW 1018,1 10 - 0,0
19.02.2019 23:00:00 8,9 6,1 - - 18 10 - - SSW 1018,1 10 0 0,0
19.02.2019 22:00:00 9,0 5,8 - - 18 10 - - SSW 1018,4 10 0 0,0
19.02.2019 21:00:00 8,1 5,2 - - 15 8 - - SSW 1018,4 10 0 0,0
19.02.2019 20:00:00 8,4 5,5 - - 16 9 - - S 1018,4 10 0 0,0
19.02.2019 19:00:00 8,4 5,7 - - 16 9 - - S 1018,5 10 0 0,0
19.02.2019 18:00:00 8,3 5,3 - - 15 8 - - SSW 1018,2 20 0 0,0
19.02.2019 17:00:00 9,1 5,4 - - 22 12 - - SSW 1018,3 10 0 0,0
19.02.2019 16:00:00 9,8 5,0 - - 28 15 - - SSW 1018,6 20 6 0,0
19.02.2019 15:00:00 10,2 5,4 - - 28 15 - - SSW 1018,7 10 24 0,0
19.02.2019 14:00:00 10,5 5,2 - - 24 13 - - SSW 1019,0 25 48 0,0
19.02.2019 13:00:00 10,5 5,0 - - 16 9 - - SSW 1019,5 10 36 0,0
19.02.2019 12:00:00 9,8 5,5 - - 18 10 - - SSW 1019,8 10 48 0,0
19.02.2019 11:00:00 9,4 5,6 - - 16 9 - - SSW 1019,9 20 60 0,0
19.02.2019 10:00:00 8,0 4,9 - - 16 9 - - SSW 1019,9 20 60 0,0
19.02.2019 09:00:00 5,5 3,9 7,9 7,2 9 5 - - SSW 1019,6 10 54 0,0
19.02.2019 08:00:00 3,4 2,6 - - 8 4 - - SW 1019,4 10 0 0,0
19.02.2019 07:00:00 2,5 1,9 - - 9 5 - - SW 1018,9 10 0 0,0
19.02.2019 06:00:00 2,1 1,0 - - 2 1 - - SSW 1018,7 10 0 0,0
19.02.2019 05:00:00 3,2 1,6 - - 9 5 - - SSW 1018,5 10 0 0,0
19.02.2019 04:00:00 5,0 3,3 - - 13 7 - - SW 1018,4 10 0 0,0
19.02.2019 03:00:00 4,5 3,3 - - 11 6 - - SW 1018,4 10 0 0,0
19.02.2019 02:00:00 3,6 1,8 - - 9 5 - - SSW 1018,4 10 0 0,0
19.02.2019 01:00:00 4,9 3,0 - - 9 5 - - WSW 1018,2 17 0 0,0
19.02.2019 00:00:00 5,3 3,2 - - 13 7 - - WSW 1017,7 18 - 0,0
18.02.2019 23:00:00 4,8 2,5 - - 11 6 - - SW 1017,5 16 0 0,0
18.02.2019 22:00:00 4,5 2,6 - - 9 5 - - SW 1017,5 10 0 0,0
18.02.2019 21:00:00 4,7 2,2 - - 11 6 - - SSW 1017,0 10 0 0,0
18.02.2019 20:00:00 4,6 1,5 - - 9 5 - - SSW 1016,7 28 0 0,0
18.02.2019 19:00:00 6,7 2,0 - - 11 6 - - WSW 1016,3 28 0 0,0
18.02.2019 18:00:00 7,7 3,0 - - 11 6 - - W 1015,5 10 6 0,0
18.02.2019 17:00:00 9,3 5,8 - - 5 3 - - WNW 1014,7 23 48 0,0
18.02.2019 16:00:00 10,9 6,9 - - 8 4 - - WSW 1014,3 40 18 0,0
18.02.2019 15:00:00 9,6 7,2 - - 5 3 - - SW 1014,3 50 0 0,0
18.02.2019 14:00:00 8,7 6,4 - - 15 8 - - W 1014,3 10 0 0,0
18.02.2019 13:00:00 8,2 5,6 - - 18 10 - - SSW 1014,5 10 0 1,6
18.02.2019 12:00:00 10,8 7,7 - - 18 10 - - SSW 1014,4 16 0 0,0
18.02.2019 11:00:00 10,4 7,9 - - 21 11 - - SSW 1014,5 10 0 0,0
18.02.2019 10:00:00 9,8 7,4 - - 16 9 - - S 1014,4 27 0 0,0
18.02.2019 09:00:00 9,5 7,8 8,4 7,0 15 8 - - SSW 1014,6 19 0 0,0
18.02.2019 08:00:00 9,3 7,9 - - 13 7 - - S 1014,4 10 0 0,0
18.02.2019 07:00:00 8,8 7,4 - - 8 4 - - SSW 1014,1 13 0 0,0
18.02.2019 06:00:00 8,2 6,6 - - 8 4 - - S 1014,0 21 0 0,0
18.02.2019 05:00:00 8,6 5,8 - - 13 7 - - SSW 1014,1 35 0 0,0
18.02.2019 04:00:00 8,9 6,1 - - 22 12 - - S 1014,0 29 0 0,0
18.02.2019 03:00:00 9,7 8,0 - - 24 13 - - S 1014,2 10 0 0,0
18.02.2019 02:00:00 9,6 8,0 - - 21 11 - - S 1014,9 12 0 0,0
18.02.2019 01:00:00 9,7 8,0 - - 21 11 - - SSW 1015,1 10 0 0,6
18.02.2019 00:00:00 9,3 7,4 - - 18 10 - - S 1015,2 12 - 0,0
17.02.2019 23:00:00 9,7 7,9 - - 16 9 - - SSW 1015,3 10 0 0,0
17.02.2019 22:00:00 9,3 7,8 - - 15 8 - - SSW 1015,0 10 0 0,0
17.02.2019 21:00:00 9,7 7,6 - - 16 9 - - SSW 1014,9 13 0 0,0
17.02.2019 20:00:00 9,7 7,8 - - 21 11 - - S 1014,8 10 0 0,0
17.02.2019 19:00:00 9,8 7,9 - - 18 10 - - S 1014,5 11 0 0,0
17.02.2019 18:00:00 10,1 8,0 - - 22 12 - - SSW 1014,1 10 0 0,0
17.02.2019 17:00:00 10,8 8,6 - - 22 12 - - SSW 1013,7 12 0 0,0
17.02.2019 16:00:00 11,4 8,8 - - 24 13 - - SSW 1013,6 10 6 0,0
17.02.2019 15:00:00 11,7 8,8 - - 26 14 - - SSW 1013,5 14 6 0,0
17.02.2019 14:00:00 12,1 9,3 - - 28 15 - - SSW 1013,4 10 6 0,0
17.02.2019 13:00:00 12,0 9,6 - - 26 14 - - SSW 1013,5 14 0 0,0
17.02.2019 12:00:00 10,8 9,0 - - 22 12 - - S 1013,6 10 0 0,0
17.02.2019 11:00:00 11,1 8,5 - - 26 14 - - S 1013,5 10 18 -
17.02.2019 10:00:00 10,9 8,0 - - 31 17 46 25 S 1012,9 10 54 0,0
17.02.2019 09:00:00 10,1 6,9 7,9 7,0 22 12 - - S 1012,8 10 36 0,0
17.02.2019 08:00:00 8,9 6,4 - - 21 11 - - S 1012,4 14 0 0,0
17.02.2019 07:00:00 6,0 4,5 - - 9 5 - - E 1013,0 12 0 0,0
17.02.2019 06:00:00 5,3 3,7 - - 15 8 - - ENE 1013,5 9 0 0,0
17.02.2019 05:00:00 7,4 5,0 - - 9 5 - - E 1014,0 11 0 0,0
17.02.2019 04:00:00 8,0 5,9 - - 11 6 - - ESE 1014,6 11 0 0,0
17.02.2019 03:00:00 8,6 6,2 - - 13 7 - - SE 1015,4 10 0 0,0
17.02.2019 02:00:00 9,1 6,8 - - 21 11 - - SE 1016,1 11 0 0,0
17.02.2019 01:00:00 9,1 7,0 - - 21 11 - - SE 1017,3 12 0 0,0
17.02.2019 00:00:00 9,5 7,8 - - 16 9 - - SE 1018,2 14 - 0,0
16.02.2019 23:00:00 8,9 7,5 - - 8 4 - - SSE 1018,9 10 0 0,0
16.02.2019 22:00:00 9,8 8,5 - - 18 10 - - SSE 1019,7 13 0 0,0
16.02.2019 21:00:00 9,8 8,8 - - 21 11 - - S 1020,4 10 0 0,0
16.02.2019 20:00:00 10,2 9,1 - - 18 10 - - S 1020,6 12 0 0,0
16.02.2019 19:00:00 10,6 9,4 - - 15 8 - - S 1020,9 10 0 0,0
16.02.2019 18:00:00 10,8 9,6 - - 13 7 - - S 1020,8 13 0 0,0
16.02.2019 17:00:00 11,1 9,9 - - 15 8 - - SSE 1020,5 14 0 0,0
16.02.2019 16:00:00 11,4 10,2 - - 16 9 - - S 1020,9 18 0 0,0
16.02.2019 15:00:00 11,6 10,3 - - 15 8 - - S 1021,4 15 0 0,0
16.02.2019 14:00:00 11,6 10,6 - - 13 7 - - S 1022,0 12 0 0,0
16.02.2019 13:00:00 11,8 10,6 - - 16 9 - - SSW 1022,5 15 0 0,0
16.02.2019 12:00:00 11,7 10,5 - - 21 11 - - SSW 1022,8 20 0 0,0
16.02.2019 11:00:00 11,6 10,4 - - 15 8 - - S 1022,9 14 0 0,0
16.02.2019 10:00:00 11,0 10,2 - - 15 8 - - SSW 1022,9 12 0 0,0
16.02.2019 09:00:00 10,5 9,9 7,2 7,0 15 8 - - S 1022,8 7 0 0,0
16.02.2019 08:00:00 10,3 9,9 - - 18 10 - - S 1022,4 4,9 0 0,0
16.02.2019 07:00:00 10,3 9,9 - - 15 8 - - S 1022,1 6 0 0,0
16.02.2019 06:00:00 10,5 9,8 - - 15 8 - - S 1021,9 8 0 0,0
16.02.2019 05:00:00 10,1 9,7 - - 15 8 - - S 1022,1 5 0 0,0
16.02.2019 04:00:00 10,0 9,3 - - 15 8 - - S 1022,0 5 0 0,0
16.02.2019 03:00:00 9,7 9,1 - - 13 7 - - S 1022,3 6 0 0,0
16.02.2019 02:00:00 7,9 7,5 - - 11 6 - - S 1022,3 5 0 0,0
16.02.2019 01:00:00 5,2 4,4 - - 13 7 - - SE 1022,8 4,5 0 0,0
16.02.2019 00:00:00 6,0 5,4 - - 9 5 - - SE 1023,4 5 - 0,2
15.02.2019 23:00:00 4,8 4,1 - - 4 2 - - NW 1023,6 3,8 0 0,0
15.02.2019 22:00:00 5,5 4,5 - - 13 7 - - SE 1023,2 6 0 0,0
15.02.2019 21:00:00 5,1 4,1 - - 11 6 - - SSE 1023,8 5 0 0,0
15.02.2019 20:00:00 6,0 4,7 - - 8 4 - - E 1024,1 10 0 0,0

tt = temperature
td = dewpoint
tt -20cm = temperature -20cm
tt -100cm = temperature -100cm
ff = wind speed
fx = gusts
dd = wind direction
ppp = reduced air pressure
vv = visibility
sd = sunshine duration
rr = precipitation

Next stations